Manchester, NH

6:11 AM EDT on March 24, 2017 (GMT -0400)
Manchester

Weather History for KMHT - February, 2013

Change the Weather History Date:

Friday, February 15, 2013

  Actual Average Record
Temperature  
Mean Temperature 36 °F 28 °F  
Max Temperature 51 °F 37 °F 55 °F (2006)
Min Temperature 21 °F 19 °F -7 °F (1987)
Degree Days  
Heating Degree Days 29 37  
Month to date heating degree days 579  
Since 1 July heating degree days 4205  
Cooling Degree Days 0 0  
Month to date cooling degree days 0  
Year to date cooling degree days 0  
Moisture  
Dew Point 24 °F    
Average Humidity 65    
Maximum Humidity 89    
Minimum Humidity 38    
Precipitation  
Precipitation 0.00 in 0.12 in 0.70 in (1950)
Month to date precipitation 1.33  
Year to date precipitation 4.35  
Snow  
Snow 0.00 in - - ()
Month to date snowfall  
Since 1 July snowfall  
Snow Depth 7.00 in    
Sea Level Pressure  
Sea Level Pressure 29.97 in    
Wind  
Wind Speed 3 mph (SW)    
Max Wind Speed 13 mph    
Max Gust Speed 20 mph    
Visibility 9 miles    
Events      
T = Trace of Precipitation, MM = Missing Value Source: NWS Daily Summary

Daily Weather History Graph

Daily Weather History Graph

Search for Another Location

Airport or City:

Trip Planner

Search our weather history database for the weather conditions in past years. The results will help you decide how hot, cold, wet, or windy it might be!

Date:

Astronomy

Feb. 15, 2013 Rise Set
Actual Time 6:42 AM EST 5:17 PM EST
Civil Twilight 6:13 AM EST 5:46 PM EST
Nautical Twilight 5:40 AM EST 6:19 PM EST
Astronomical Twilight 5:07 AM EST 6:52 PM EST
Moon 9:07 AM EST (2/15) 11:26 PM EST (2/15)
Length of Visible Light 11h 32m
Length of Day
10h 34m
Waxing Crescent, 30% of the Moon is Illuminated
Feb 15
Waxing Crescent
Feb 17
First Quarter
Feb 25
Full
Mar 4
Last Quarter
Mar 11
New

Hourly Weather History & Observations

Time (EST) Temp. Windchill Dew Point Humidity Pressure Visibility Wind Dir Wind Speed Gust Speed Precip Events Conditions
12:53 AM 25.0 °F - 19.0 °F 78% 30.01 in 10.0 mi Calm Calm - N/A   Clear
1:53 AM 24.1 °F - 19.0 °F 81% 30.01 in 10.0 mi Calm Calm - N/A   Clear
2:53 AM 23.0 °F - 18.0 °F 81% 30.01 in 10.0 mi Calm Calm - N/A   Clear
3:53 AM 21.0 °F - 17.1 °F 85% 30.00 in 10.0 mi Calm Calm - N/A   Clear
4:53 AM 21.9 °F - 18.0 °F 85% 30.00 in 10.0 mi Calm Calm - N/A   Overcast
5:53 AM 21.9 °F - 18.0 °F 85% 30.00 in 10.0 mi Calm Calm - N/A   Scattered Clouds
6:53 AM 24.1 °F - 19.0 °F 81% 30.01 in 7.0 mi Calm Calm - N/A   Partly Cloudy
7:53 AM 28.0 °F 20.8 °F 25.0 °F 88% 29.99 in 6.0 mi South 6.9 mph - N/A   Clear
8:53 AM 30.9 °F 27.5 °F 28.0 °F 89% 30.01 in 6.0 mi Variable 3.5 mph - N/A   Clear
9:53 AM 36.0 °F 29.0 °F 28.0 °F 73% 30.00 in 6.0 mi South 9.2 mph - N/A   Haze
10:53 AM 42.1 °F 37.1 °F 27.0 °F 55% 29.99 in 8.0 mi SSW 8.1 mph - N/A   Clear
11:53 AM 46.9 °F - 27.0 °F 46% 29.95 in 10.0 mi South 11.5 mph 19.6 mph N/A   Partly Cloudy
12:53 PM 48.9 °F - 26.1 °F 41% 29.93 in 10.0 mi WSW 9.2 mph 18.4 mph N/A   Partly Cloudy
1:53 PM 50.0 °F - 25.0 °F 38% 29.92 in 10.0 mi SSW 12.7 mph 19.6 mph N/A   Partly Cloudy
2:53 PM 50.0 °F - 25.0 °F 38% 29.91 in 10.0 mi WSW 9.2 mph - N/A   Partly Cloudy
3:53 PM 51.1 °F - 26.1 °F 38% 29.91 in 10.0 mi South 8.1 mph - N/A   Partly Cloudy
4:53 PM 50.0 °F - 25.0 °F 38% 29.92 in 10.0 mi WSW 4.6 mph - N/A   Partly Cloudy
5:53 PM 46.9 °F - 26.1 °F 44% 29.93 in 10.0 mi Calm Calm - N/A   Partly Cloudy
6:53 PM 39.0 °F 36.8 °F 27.0 °F 62% 29.96 in 10.0 mi NNW 3.5 mph - N/A   Scattered Clouds
7:53 PM 41.0 °F 38.0 °F 24.1 °F 51% 29.96 in 10.0 mi NNW 4.6 mph - N/A   Partly Cloudy
8:53 PM 36.0 °F - 25.0 °F 64% 29.97 in 10.0 mi Calm Calm - N/A   Partly Cloudy
9:53 PM 35.1 °F - 24.1 °F 64% 29.98 in 10.0 mi Calm Calm - N/A   Scattered Clouds
10:53 PM 32.0 °F - 24.1 °F 73% 29.98 in 10.0 mi Calm Calm - N/A   Mostly Cloudy
11:53 PM 32.0 °F - 24.1 °F 73% 29.97 in 10.0 mi Calm Calm - N/A   Overcast